| time (UTC) | temp F | wind direction | speed knots | gust knots | rain 1hr in | rain 24hr in | rain mn in | humidity % | barometer mb |
| 20260507115207 | 38 | 252 | 5.2 | 12.2 | 0.00 | 0.00 | 0.00 | 83 | 1011.0 |
| 20260507114236 | 38 | 223 | 5.2 | 10.4 | 0.00 | 0.00 | 0.00 | 83 | 1011.2 |
| 20260507113242 | 38 | 219 | 3.5 | 10.4 | 0.00 | 0.00 | 0.00 | 83 | 1011.1 |
| 20260507112239 | 38 | 199 | 4.3 | 11.3 | 0.00 | 0.00 | 0.00 | 82 | 1011.2 |
| 20260507111225 | 38 | 222 | 4.3 | 9.6 | 0.00 | 0.00 | 0.00 | 83 | 1011.2 |
| 20260507110229 | 39 | 225 | 5.2 | 12.2 | 0.00 | 0.00 | 0.00 | 82 | 1011.4 |
| 20260507105230 | 39 | 6 | 5.2 | 11.3 | 0.00 | 0.00 | 0.00 | 81 | 1011.6 |
| 20260507104217 | 39 | 6 | 7.0 | 13.9 | 0.00 | 0.00 | 0.00 | 81 | 1011.8 |
| 20260507103214 | 39 | 6 | 6.1 | 13.9 | 0.00 | 0.00 | 0.00 | 81 | 1012.0 |
| 20260507102238 | 40 | 6 | 6.1 | 12.2 | 0.00 | 0.00 | 0.00 | 81 | 1012.0 |
| 20260507101238 | 40 | 6 | 5.2 | 13.0 | 0.00 | 0.00 | 0.00 | 81 | 1012.2 |
| 20260507100202 | 40 | 6 | 7.8 | 13.9 | 0.00 | 0.00 | 0.00 | 81 | 1012.3 |
| 20260507095220 | 40 | 6 | 5.2 | 11.3 | 0.00 | 0.00 | 0.00 | 81 | 1012.4 |
| 20260507094231 | 40 | 6 | 7.0 | 13.0 | 0.00 | 0.00 | 0.00 | 81 | 1012.5 |
| 20260507093239 | 40 | 6 | 7.0 | 11.3 | 0.00 | 0.00 | 0.00 | 81 | 1012.6 |
| 20260507092157 | 41 | 6 | 7.0 | 15.6 | 0.00 | 0.00 | 0.00 | 81 | 1012.7 |
| 20260507091237 | 41 | 6 | 7.8 | 14.8 | 0.00 | 0.00 | 0.00 | 81 | 1012.7 |
| 20260507085206 | 41 | 6 | 7.0 | 13.0 | 0.00 | 0.00 | 0.00 | 81 | 1012.8 |
| 20260507084225 | 41 | 6 | 7.8 | 13.9 | 0.00 | 0.00 | 0.00 | 81 | 1012.9 |
| 20260507083224 | 41 | 6 | 6.1 | 12.2 | 0.00 | 0.00 | 0.00 | 80 | 1012.9 |
| 20260507082222 | 41 | 6 | 7.0 | 13.9 | 0.00 | 0.00 | 0.00 | 80 | 1013.0 |
| 20260507081211 | 41 | 6 | 7.0 | 15.6 | 0.00 | 0.00 | 0.00 | 80 | 1013.1 |
| 20260507080220 | 41 | 6 | 7.8 | 16.5 | 0.00 | 0.00 | 0.00 | 81 | 1013.2 |
| 20260507075203 | 41 | 6 | 7.8 | 14.8 | 0.00 | 0.00 | 0.00 | 81 | 1013.4 |
| 20260507074159 | 41 | 6 | 8.7 | 15.6 | 0.00 | 0.00 | 0.00 | 81 | 1013.4 |
| 20260507072225 | 42 | 6 | 7.0 | 16.5 | 0.00 | 0.00 | 0.00 | 80 | 1013.9 |
| 20260507071228 | 42 | 6 | 7.0 | 15.6 | 0.00 | 0.00 | 0.00 | 81 | 1014.2 |
| 20260507070223 | 42 | 6 | 8.7 | 16.5 | 0.00 | 0.00 | 0.00 | 80 | 1014.4 |
| 20260507065219 | 42 | 6 | 7.0 | 14.8 | 0.00 | 0.00 | 0.00 | 80 | 1014.5 |
| 20260507064228 | 42 | 6 | 7.0 | 16.5 | 0.00 | 0.00 | 0.00 | 80 | 1014.5 |
| 20260507063240 | 42 | 6 | 7.0 | 13.9 | 0.00 | 0.00 | 0.00 | 80 | 1014.6 |
| 20260507062223 | 42 | 6 | 5.2 | 14.8 | 0.00 | 0.00 | 0.00 | 79 | 1014.7 |
| 20260507061205 | 43 | 214 | 6.1 | 14.8 | 0.00 | 0.00 | 0.00 | 79 | 1014.7 |
| 20260507060204 | 43 | 233 | 7.0 | 13.9 | 0.00 | 0.00 | 0.00 | 78 | 1014.8 |
| 20260507055222 | 43 | 214 | 7.0 | 14.8 | 0.00 | 0.00 | 0.00 | 78 | 1014.8 |
| 20260507054220 | 43 | 216 | 7.8 | 18.2 | 0.00 | 0.00 | 0.00 | 77 | 1014.9 |
| 20260507052210 | 44 | 224 | 7.0 | 14.8 | 0.00 | 0.00 | 0.00 | 76 | 1015.1 |
| 20260507051209 | 44 | 216 | 7.0 | 14.8 | 0.00 | 0.00 | 0.00 | 75 | 1015.1 |
| 20260507050233 | 44 | 219 | 7.0 | 14.8 | 0.00 | 0.00 | 0.00 | 74 | 1015.1 |
| 20260507045220 | 44 | 218 | 7.0 | 15.6 | 0.00 | 0.00 | 0.00 | 72 | 1015.1 |
| 20260507044230 | 44 | 212 | 8.7 | 13.0 | 0.00 | 0.00 | 0.00 | 70 | 1015.3 |
| 20260507043206 | 44 | 211 | 6.1 | 12.2 | 0.00 | 0.00 | 0.00 | 68 | 1015.4 |
| 20260507042209 | 45 | 211 | 7.8 | 13.9 | 0.00 | 0.00 | 0.00 | 66 | 1015.6 |
| 20260507041157 | 45 | 210 | 6.1 | 12.2 | 0.00 | 0.00 | 0.00 | 65 | 1015.6 |
| 20260507040209 | 46 | 215 | 5.2 | 11.3 | 0.00 | 0.00 | 0.00 | 63 | 1015.7 |
| 20260507035213 | 46 | 220 | 4.3 | 9.6 | 0.00 | 0.00 | 0.00 | 62 | 1015.7 |
| 20260507034207 | 46 | 208 | 5.2 | 12.2 | 0.00 | 0.00 | 0.00 | 61 | 1015.9 |
| 20260507033241 | 47 | 205 | 5.2 | 13.0 | 0.00 | 0.00 | 0.00 | 61 | 1016.0 |
| 20260507032208 | 47 | 236 | 6.1 | 13.0 | 0.00 | 0.00 | 0.00 | 60 | 1016.0 |
| 20260507031215 | 48 | 216 | 4.3 | 13.0 | 0.00 | 0.00 | 0.00 | 60 | 1016.1 |
| 20260507030215 | 48 | 214 | 5.2 | 11.3 | 0.00 | 0.00 | 0.00 | 60 | 1016.1 |
| 20260507025223 | 48 | 227 | 6.1 | 13.0 | 0.00 | 0.00 | 0.00 | 60 | 1016.0 |
| 20260507024203 | 48 | 212 | 6.1 | 15.6 | 0.00 | 0.00 | 0.00 | 60 | 1015.8 |
| 20260507021157 | 49 | 198 | 5.2 | 13.0 | 0.00 | 0.00 | 0.00 | 61 | 1015.8 |
| 20260507020224 | 50 | 6 | 7.0 | 13.9 | 0.00 | 0.00 | 0.00 | 61 | 1016.0 |
| 20260507015233 | 50 | 224 | 6.1 | 12.2 | 0.00 | 0.00 | 0.00 | 59 | 1015.8 |
| 20260507014156 | 50 | 214 | 6.1 | 11.3 | 0.00 | 0.00 | 0.00 | 57 | 1015.7 |
| 20260507013230 | 51 | 236 | 6.1 | 12.2 | 0.00 | 0.00 | 0.00 | 56 | 1015.6 |
| 20260507012205 | 51 | 248 | 4.3 | 13.9 | 0.00 | 0.00 | 0.00 | 54 | 1015.6 |
| 20260507011208 | 52 | 212 | 5.2 | 13.9 | 0.00 | 0.00 | 0.00 | 53 | 1015.7 |
| 20260507010206 | 52 | 217 | 5.2 | 14.8 | 0.00 | 0.00 | 0.00 | 53 | 1015.6 |
| 20260507005210 | 53 | 212 | 8.7 | 13.9 | 0.00 | 0.00 | 0.00 | 50 | 1015.6 |
| 20260507004239 | 53 | 258 | 6.1 | 13.0 | 0.00 | 0.00 | 0.00 | 49 | 1015.5 |
| 20260507003234 | 53 | 255 | 2.6 | 11.3 | 0.00 | 0.00 | 0.00 | 49 | 1015.5 |
| 20260507002220 | 53 | 250 | 5.2 | 14.8 | 0.00 | 0.00 | 0.00 | 48 | 1015.5 |
| 20260507001157 | 54 | 261 | 7.0 | 13.0 | 0.00 | 0.00 | 0.00 | 47 | 1015.5 |
| 20260507000205 | 54 | 253 | 7.0 | 10.4 | 0.00 | 0.00 | 0.00 | 46 | 1015.6 |
| 20260506234240 | 54 | 238 | 5.2 | 12.2 | 0.00 | 0.00 | 0.00 | 46 | 1015.8 |
| 20260506233219 | 54 | 251 | 5.2 | 13.9 | 0.00 | 0.00 | 0.00 | 45 | 1015.9 |
| 20260506232201 | 54 | 275 | 7.8 | 12.2 | 0.00 | 0.00 | 0.00 | 45 | 1015.9 |
| 20260506231220 | 53 | 263 | 6.1 | 11.3 | 0.00 | 0.01 | 0.00 | 46 | 1016.1 |
| 20260506230231 | 53 | 263 | 2.6 | 8.7 | 0.00 | 0.01 | 0.00 | 47 | 1016.1 |
| 20260506225237 | 53 | 206 | 3.5 | 9.6 | 0.00 | 0.01 | 0.00 | 45 | 1016.2 |
| 20260506224218 | 54 | 262 | 0.9 | 8.7 | 0.00 | 0.01 | 0.00 | 45 | 1016.2 |
| 20260506223206 | 54 | 257 | 3.5 | 10.4 | 0.00 | 0.01 | 0.00 | 43 | 1016.2 |
| 20260506222220 | 54 | 216 | 6.1 | 13.9 | 0.00 | 0.01 | 0.00 | 43 | 1016.2 |
| 20260506221206 | 54 | 209 | 7.0 | 11.3 | 0.00 | 0.01 | 0.00 | 42 | 1016.3 |
| 20260506220202 | 54 | 270 | 1.7 | 13.0 | 0.00 | 0.01 | 0.00 | 39 | 1016.4 |
| 20260506215209 | 55 | 226 | 5.2 | 15.6 | 0.00 | 0.01 | 0.00 | 40 | 1016.5 |
| 20260506214232 | 55 | 244 | 6.1 | 11.3 | 0.00 | 0.01 | 0.00 | 39 | 1016.3 |
| 20260506213232 | 55 | 199 | 0.9 | 7.8 | 0.00 | 0.01 | 0.00 | 40 | 1016.4 |
| 20260506212240 | 55 | 278 | 4.3 | 9.6 | 0.00 | 0.01 | 0.00 | 39 | 1016.6 |
| 20260506211207 | 55 | 242 | 5.2 | 8.7 | 0.00 | 0.01 | 0.00 | 40 | 1016.6 |
| 20260506210223 | 54 | 245 | 2.6 | 9.6 | 0.00 | 0.01 | 0.00 | 40 | 1016.8 |
| 20260506205220 | 54 | 271 | 0.9 | 8.7 | 0.00 | 0.01 | 0.00 | 41 | 1017.0 |
| 20260506204200 | 54 | 312 | 4.3 | 10.4 | 0.00 | 0.01 | 0.00 | 40 | 1017.1 |
| 20260506202235 | 54 | 300 | 4.3 | 10.4 | 0.00 | 0.01 | 0.00 | 37 | 1017.3 |
| 20260506201226 | 55 | 259 | 2.6 | 7.8 | 0.00 | 0.01 | 0.00 | 39 | 1017.3 |
| 20260506200209 | 55 | 243 | 6.1 | 11.3 | 0.00 | 0.01 | 0.00 | 39 | 1017.3 |
| 20260506195230 | 54 | 223 | 5.2 | 13.0 | 0.00 | 0.01 | 0.00 | 41 | 1017.4 |
| 20260506194236 | 53 | 256 | 5.2 | 10.4 | 0.00 | 0.01 | 0.00 | 42 | 1017.6 |
| 20260506192208 | 53 | 251 | 5.2 | 10.4 | 0.00 | 0.01 | 0.00 | 41 | 1017.8 |
| 20260506191227 | 53 | 259 | 6.1 | 9.6 | 0.00 | 0.01 | 0.00 | 42 | 1018.0 |
| 20260506190230 | 53 | 313 | 1.7 | 4.3 | 0.00 | 0.01 | 0.00 | 39 | 1017.9 |
| 20260506185240 | 52 | 298 | 2.6 | 11.3 | 0.00 | 0.01 | 0.00 | 42 | 1018.2 |
| 20260506184239 | 53 | 235 | 3.5 | 9.6 | 0.00 | 0.01 | 0.00 | 39 | 1018.4 |
| 20260506182212 | 54 | 304 | 2.6 | 10.4 | 0.00 | 0.01 | 0.00 | 41 | 1018.6 |
| 20260506180208 | 52 | 225 | 4.3 | 10.4 | 0.00 | 0.01 | 0.00 | 43 | 1018.7 |
| 20260506175241 | 51 | 232 | 4.3 | 9.6 | 0.00 | 0.01 | 0.00 | 41 | 1018.9 |
| 20260506174227 | 51 | 248 | 3.5 | 8.7 | 0.00 | 0.01 | 0.00 | 43 | 1018.9 |
| 20260506173231 | 50 | 177 | 3.5 | 5.2 | 0.00 | 0.01 | 0.00 | 43 | 1018.8 |
| 20260506171217 | 49 | 284 | 2.6 | 6.1 | 0.00 | 0.01 | 0.00 | 43 | 1018.8 |
| 20260506170237 | 49 | 6 | 1.7 | 3.5 | 0.00 | 0.01 | 0.00 | 42 | 1018.9 |
| 20260506164222 | 50 | 18 | 2.6 | 7.8 | 0.00 | 0.01 | 0.00 | 43 | 1018.8 |
| 20260506163218 | 51 | 25 | 2.6 | 4.3 | 0.00 | 0.01 | 0.00 | 42 | 1018.7 |
| 20260506162227 | 51 | 37 | 1.7 | 9.6 | 0.00 | 0.01 | 0.00 | 43 | 1018.7 |
| 20260506161204 | 52 | 6 | 3.5 | 8.7 | 0.00 | 0.01 | 0.00 | 41 | 1018.7 |
| 20260506154214 | 50 | 183 | 1.7 | 4.3 | 0.00 | 0.01 | 0.00 | 45 | 1018.9 |
| 20260506152221 | 50 | 1 | 3.5 | 5.2 | 0.00 | 0.01 | 0.00 | 44 | 1019.0 |
| 20260506151204 | 50 | 6 | 1.7 | 3.5 | 0.00 | 0.01 | 0.00 | 42 | 1019.0 |
| 20260506144222 | 47 | 6 | 0.9 | 3.5 | 0.00 | 0.01 | 0.00 | 46 | 1018.7 |
| 20260506143216 | 45 | 340 | 0.0 | 1.7 | 0.00 | 0.01 | 0.00 | 50 | 1018.8 |
| 20260506142239 | 45 | 328 | 0.9 | 2.6 | 0.00 | 0.01 | 0.00 | 51 | 1018.8 |
| 20260506141207 | 45 | 351 | 0.0 | 2.6 | 0.00 | 0.01 | 0.00 | 56 | 1018.8 |
| 20260506134228 | 41 | 327 | 0.9 | 2.6 | 0.00 | 0.01 | 0.00 | 68 | 1018.6 |
| 20260506133214 | 41 | 334 | 0.9 | 3.5 | 0.00 | 0.01 | 0.00 | 70 | 1018.7 |
| 20260506132228 | 40 | 6 | 0.9 | 2.6 | 0.00 | 0.01 | 0.00 | 70 | 1018.7 |
| 20260506131208 | 39 | 6 | 1.7 | 3.5 | 0.00 | 0.01 | 0.00 | 72 | 1018.7 |
| 20260506130231 | 39 | 339 | 0.9 | 2.6 | 0.00 | 0.01 | 0.00 | 74 | 1018.4 |
| 20260506125214 | 39 | 328 | 1.7 | 2.6 | 0.00 | 0.01 | 0.00 | 76 | 1018.1 |
| 20260506124227 | 38 | 328 | 0.9 | 2.6 | 0.00 | 0.01 | 0.00 | 76 | 1018.0 |
| 20260506123200 | 38 | 328 | 1.7 | 2.6 | 0.00 | 0.01 | 0.00 | 77 | 1017.8 |
| 20260506122217 | 38 | 328 | 1.7 | 2.6 | 0.00 | 0.01 | 0.00 | 77 | 1017.7 |
| 20260506121238 | 38 | 328 | 1.7 | 2.6 | 0.00 | 0.01 | 0.00 | 77 | 1017.7 |